Total_Precipitation_Accumulation
0.04 0.04 0.09 0.08 0.07 0.08 0.10 0.11 0.11 0.09 0.07 0.09 0.10 0.07 0.04 0.03 0.03 0.02 0.02 0.03 0.05 0.07 0.10 0.11 0.13 0.14 0.15 0.16 0.16 0.16 0.15 0.15 0.17 0.20 0.21 0.23 0.26 0.38 0.50 0.50 0.63 0.43 0.34
0.02 0.03 0.08 0.08 0.07 0.07 0.09 0.10 0.11 0.11 0.09 0.07 0.07 0.06 0.05 0.05 0.04 0.03 0.03 0.04 0.06 0.08 0.09 0.10 0.09 0.10 0.10 0.10 0.10 0.10 0.11 0.15 0.22 0.26 0.29 0.28 0.33 0.43 0.49 0.48 0.64 0.39 0.28
0.04 0.03 0.05 0.08 0.06 0.07 0.09 0.10 0.11 0.10 0.10 0.09 0.07 0.06 0.06 0.05 0.05 0.05 0.05 0.06 0.07 0.09 0.09 0.09 0.08 0.06 0.06 0.07 0.07 0.08 0.13 0.19 0.33 0.49 0.67 0.45 0.26 0.40 0.47 0.45 0.38 0.24 0.24
0.04 0.02 0.02 0.06 0.07 0.06 0.08 0.09 0.11 0.11 0.12 0.12 0.09 0.08 0.07 0.07 0.07 0.08 0.07 0.07 0.08 0.09 0.09 0.08 0.07 0.05 0.05 0.06 0.08 0.09 0.13 0.21 0.40 0.69 0.98 0.45 0.20 0.25 0.31 0.27 0.23 0.20 0.22
0.05 0.03 0.04 0.05 0.06 0.06 0.07 0.09 0.10 0.11 0.12 0.13 0.11 0.08 0.08 0.09 0.10 0.11 0.10 0.08 0.08 0.08 0.08 0.08 0.07 0.07 0.06 0.07 0.09 0.12 0.15 0.22 0.36 0.64 0.65 0.52 0.48 0.26 0.21 0.20 0.23 0.24 0.24
0.07 0.05 0.05 0.06 0.06 0.06 0.07 0.08 0.10 0.12 0.13 0.13 0.11 0.10 0.10 0.11 0.11 0.11 0.10 0.09 0.08 0.08 0.09 0.08 0.07 0.08 0.08 0.09 0.12 0.15 0.21 0.31 0.44 0.41 0.35 0.48 0.48 0.28 0.22 0.26 0.31 0.25 0.25
0.09 0.10 0.10 0.10 0.08 0.09 0.08 0.09 0.10 0.11 0.12 0.12 0.11 0.12 0.12 0.12 0.11 0.11 0.11 0.10 0.09 0.08 0.09 0.11 0.10 0.08 0.09 0.10 0.13 0.17 0.25 0.36 0.47 0.32 0.33 0.56 0.48 0.25 0.28 0.41 0.51 0.41 0.28
0.14 0.17 0.18 0.17 0.15 0.13 0.11 0.11 0.12 0.13 0.14 0.14 0.14 0.14 0.13 0.13 0.14 0.13 0.13 0.12 0.12 0.12 0.11 0.12 0.13 0.11 0.11 0.11 0.15 0.19 0.22 0.24 0.31 0.30 0.32 0.46 0.34 0.24 0.31 0.49 0.65 0.62 0.52
0.34 0.45 0.37 0.24 0.20 0.21 0.19 0.18 0.17 0.17 0.19 0.18 0.18 0.17 0.16 0.16 0.16 0.17 0.18 0.18 0.18 0.19 0.19 0.16 0.13 0.15 0.15 0.14 0.16 0.20 0.23 0.26 0.36 0.44 0.41 0.45 0.29 0.29 0.38 0.49 0.61 0.68 0.67
0.46 0.52 0.49 0.33 0.28 0.22 0.19 0.20 0.22 0.22 0.23 0.22 0.21 0.20 0.19 0.18 0.20 0.23 0.25 0.30 0.31 0.34 0.36 0.31 0.23 0.22 0.24 0.24 0.21 0.24 0.26 0.27 0.34 0.43 0.59 0.51 0.37 0.42 0.51 0.53 0.60 0.71 0.75
0.83 0.73 0.64 0.40 0.32 0.30 0.26 0.23 0.29 0.29 0.29 0.28 0.31 0.28 0.30 0.36 0.47 0.61 0.56 0.65 0.60 0.62 0.62 0.60 0.53 0.51 0.52 0.42 0.38 0.42 0.39 0.30 0.46 0.57 0.63 0.48 0.51 0.69 0.81 0.69 0.66 0.70 0.73
1.25 1.09 0.85 0.59 0.48 0.46 0.38 0.39 0.43 0.44 0.54 0.54 0.68 0.71 0.81 0.98 0.97 0.80 0.94 1.15 1.20 1.19 1.12 1.09 1.18 1.07 0.90 0.74 1.02 1.18 0.56 0.40 0.54 0.65 0.69 0.78 0.93 1.16 1.30 1.09 0.90 0.80 0.76
1.42 1.24 1.07 0.86 0.69 0.58 0.60 0.62 0.69 0.81 1.07 0.95 0.91 1.02 1.30 1.23 1.03 0.94 1.07 1.35 1.62 1.63 1.53 1.67 1.79 1.42 1.47 1.54 1.65 1.66 0.99 0.72 0.69 0.80 0.77 1.02 1.27 1.55 1.77 1.60 1.27 1.09 0.96
1.97 1.70 1.41 1.27 1.07 1.03 0.98 0.92 0.87 0.93 1.04 1.03 1.15 1.08 1.39 1.47 1.36 1.30 1.41 1.52 1.72 1.93 2.22 2.19 2.31 2.18 2.10 1.94 1.93 1.83 1.51 1.34 1.17 1.30 1.44 1.45 1.57 1.77 2.05 2.08 1.81 1.50 1.25
2.40 2.18 1.97 1.77 1.67 1.62 1.47 1.32 1.12 1.17 1.15 1.17 1.36 1.37 1.50 1.74 1.80 1.86 1.82 1.74 1.66 2.02 2.42 2.57 2.34 2.58 2.61 2.24 1.93 1.78 1.68 1.66 1.82 2.00 1.95 2.16 2.11 2.07 2.27 2.35 2.18 1.93 1.74
2.57 2.64 2.70 2.53 2.40 2.28 2.12 1.97 1.76 1.61 1.67 1.64 1.69 1.83 1.98 2.13 2.28 2.33 2.18 2.05 1.85 1.90 2.17 2.37 2.38 2.59 2.47 2.35 1.78 1.69 1.63 1.71 1.84 1.89 1.92 2.40 2.37 2.16 2.15 2.28 2.34 2.21 2.05
2.75 3.13 3.35 3.35 3.26 3.11 2.94 2.69 2.35 2.16 2.21 2.37 2.43 2.48 2.44 2.50 2.72 2.61 2.35 2.05 1.95 2.00 2.09 2.08 2.11 2.21 2.07 2.00 1.78 1.85 1.79 1.65 1.52 1.55 1.71 1.95 1.94 1.80 1.77 1.86 2.05 2.22 2.37
3.05 3.54 3.79 3.92 4.08 3.95 3.78 3.44 2.94 2.66 2.61 2.65 2.72 2.72 2.66 2.67 2.58 2.51 2.20 1.86 1.91 1.99 1.98 1.95 1.84 1.91 1.89 1.94 1.92 1.79 1.84 1.69 1.38 1.34 1.43 1.42 1.51 1.42 1.55 1.63 1.72 1.93 2.37
3.25 3.89 4.31 4.75 4.96 4.83 4.37 3.73 3.24 3.13 3.02 2.89 2.88 2.75 2.63 2.44 2.30 2.39 2.10 1.91 1.88 1.83 1.72 1.63 1.82 1.96 1.90 1.91 1.83 1.69 1.49 1.33 1.11 0.98 0.98 0.93 1.07 1.24 1.40 1.48 1.51 1.62 2.10
3.29 3.94 4.57 5.13 5.27 4.94 4.24 3.68 3.49 3.30 3.00 2.74 2.46 2.27 2.07 2.01 1.91 1.98 1.78 1.68 1.76 1.76 1.62 1.66 1.81 1.88 1.67 1.73 1.63 1.39 1.22 1.00 0.93 0.82 0.71 0.70 0.69 0.71 0.92 1.25 1.53 1.33 1.62
3.48 4.08 4.62 5.03 4.94 4.64 4.18 3.69 3.31 2.82 2.50 2.21 1.90 1.67 1.51 1.42 1.40 1.57 1.40 1.48 1.54 1.49 1.40 1.38 1.45 1.48 1.30 1.53 1.63 1.21 0.90 0.78 0.71 0.62 0.62 0.62 0.56 0.64 0.83 1.09 1.30 1.37 1.31
3.36 3.76 4.06 3.98 3.55 3.30 3.12 2.84 2.47 2.32 2.17 2.07 1.96 1.73 1.40 1.33 1.27 1.19 1.21 1.18 1.24 1.28 1.17 1.12 1.23 1.22 1.04 1.29 1.39 1.27 0.90 0.74 0.63 0.48 0.50 0.50 0.54 0.68 0.72 0.82 1.07 1.23 1.17
2.73 2.94 2.94 2.69 2.28 2.15 2.12 1.93 1.95 2.07 2.08 2.02 1.98 1.84 1.59 1.45 1.38 1.30 1.20 1.09 1.06 1.05 1.06 1.03 1.10 1.11 0.99 1.02 1.13 1.30 1.05 0.76 0.62 0.43 0.42 0.48 0.63 0.76 0.76 0.84 0.91 1.07 1.08
1.88 1.91 1.90 1.81 1.67 1.58 1.58 1.52 1.42 1.51 1.69 1.81 1.93 1.94 1.92 1.78 1.57 1.40 1.25 1.06 0.91 0.87 0.93 0.82 0.89 1.01 1.03 0.92 0.91 0.98 1.01 1.06 0.98 0.65 0.41 0.39 0.58 0.69 0.71 0.73 0.81 0.98 1.10
1.19 1.26 1.26 1.34 1.39 1.38 1.41 1.54 1.43 1.23 1.17 1.10 1.14 1.26 1.36 1.43 1.35 1.14 1.03 0.94 0.84 0.77 0.75 0.78 0.89 0.96 0.98 0.91 0.90 0.88 0.93 1.08 1.10 0.98 0.68 0.58 0.61 0.57 0.55 0.62 0.75 0.89 1.03
0.84 0.91 1.05 1.17 1.32 1.31 1.30 1.32 1.34 1.25 1.17 1.07 0.99 0.98 0.93 0.96 0.95 0.87 0.80 0.79 0.76 0.74 0.74 0.73 0.78 0.86 0.94 0.99 1.00 1.03 1.08 1.09 1.15 1.24 1.04 0.87 0.80 0.68 0.64 0.74 0.86 1.04 1.16